Regional Weather Roundup
Issued by NWS Mt. Holly, NJ

Home | Current Version | Previous Version | Text Only | Print | Product List | Glossary On
Versions: 1 2 3 4 5 6 7 8 9 10 11 12 13 14 15 16 17 18 19 20 21 22 23 24 25 26 27 28 29 30 31 32 33 34 35 36 37 38 39 40 41 42 43 44 45 46 47 48 49 50
000
ASUS41 KPHI 020412
RWRPHI

REGIONAL WEATHER ROUNDUP
NATIONAL WEATHER SERVICE MOUNT HOLLY NJ
1200 AM EDT MON MAY 02 2016

NOTE:  "FAIR" INDICATES FEW OR NO CLOUDS BELOW 12,000 FEET WITH NO
SIGNIFICANT WEATHER AND/OR OBSTRUCTIONS TO VISIBILITY.

 * = STATION DOES NOT REPORT PRECIPITATION (E.G. RAIN, SNOW, ETC.)
        OR FOG.

NJZ015>026-020500-
SOUTHERN NEW JERSEY

CITY           SKY/WX    TMP DP  RH WIND       PRES   REMARKS
POMONA         FOG       49  48  97 NE6       30.04F VSB 1
WILDWOOD*      CLOUDY   N/A N/A N/A E3        30.04S
MILLVILLE      CLOUDY    51  50  96 NE6       30.04F
WRIGHTSTOWN    CLOUDY    46  45  98 NE7       30.04S
MOUNT HOLLY    CLOUDY    47  46  97 NE6       30.07S FOG
TRENTON        CLOUDY    47  45  93 E6        30.07S FOG

$$
NJZ001>014-020500-
NORTHERN NEW JERSEY

CITY           SKY/WX    TMP DP  RH WIND       PRES   REMARKS
SUSSEX         CLOUDY    46  44  93 SE3       30.07F
ANDOVER*         N/A     45  43  93 VRB3      30.06F
MORRISTOWN     CLOUDY    45  43  93 NE3       30.09S FOG
NEWARK         CLOUDY    45  43  93 NE9       30.09S FOG
TETERBORO      DRIZZLE   44  41  89 N6        30.08S FOG
CALDWELL       CLOUDY    44  42  93 E6        30.10S FOG
SOMERVILLE     CLOUDY    47  45  93 VRB5      30.07S FOG
ALLAIRE*       CLOUDY    46  45  96 N8        30.08R FOG
TOMS RIVER*    CLOUDY    46  43  87 NE9       30.06F

$$
PAZ043-044-047-054-055-060>062-066>071-020500-
EASTERN PENNSYLVANIA

CITY           SKY/WX    TMP DP  RH WIND       PRES   REMARKS
PHILADELPHIA   DRIZZLE   51  47  86 E7        30.07S
NORTH PHILA    CLOUDY    49  47  93 E9        30.08S FOG
BLUE BELL*     CLOUDY    46  46 100 E3        30.06S
DOYLESTOWN     CLOUDY    45  45 100 CALM      30.06S FOG
QUAKERTOWN*    CLOUDY    46  46 100 CALM      30.07F
PERKASIE*      CLOUDY    46  46 100 NE6       30.07F FOG
POTTSTOWN      CLOUDY    48  48 100 NE7       30.07F FOG
LANCASTER      CLOUDY    50  50 100 SE6       30.05R FOG
COATESVILLE    FOG       50  50 100 E7        30.07R VSB 1/4
READING        CLOUDY    50  48  93 E3        30.04F FOG
ALLENTOWN      CLOUDY    49  46  90 E6        30.07R
MOUNT POCONO   FOG       42  41  96 SE8       30.03F VSB 1/4
HAZLETON       FOG       45  45 100 SE5       30.05F VSB 1/4
LEHIGHTON      CLOUDY    46  46 100 E3        30.07S FOG
WILKES BARRE   CLOUDY    48  45  89 E3        30.02F

$$
DEZALL-MDZ008-012-015-019-020-020500-
DELAWARE AND EASTERN MARYLAND

CITY           SKY/WX    TMP DP  RH WIND       PRES   REMARKS
WILMINGTON     CLOUDY    52  50  93 NE7       30.06S
DOVER          CLOUDY    54  54 100 E3        30.02F
GEORGETOWN     CLOUDY    53  53 100 CALM      30.03F FOG
EASTON         CLOUDY   N/A N/A N/A CALM      30.06S FOG
PATUXENT       FOG       56  55  97 NE6       30.02S VSB 1/2
OCEAN CITY     CLOUDY    54  53  97 NE5       30.03F
WALLOPS ISLAND CLOUDY    56  54  93 E8        30.02F
CAMBRIDGE      CLOUDY    52  52 100 E3        30.02S
SALISBURY      CLOUDY    54  54 100 CALM      30.03F FOG

$$
PAZ001-021-NYZ056-072-MDZ011-DCZ001-020500-
OTHER NEARBY LOCATIONS

CITY           SKY/WX    TMP DP  RH WIND       PRES   REMARKS
HARRISBURG     DRIZZLE   52  50  93 E7        30.04R FOG
STATE COLLEGE  CLOUDY    50  49  97 CALM      29.99F
WILLIAMSPORT   CLOUDY    50  46  86 E7        30.01F
BINGHAMTON     CLOUDY    45  44  97 S10       29.99S
NEW YORK CITY  CLOUDY    46  44  93 CALM      30.11S FOG
BALTIMORE      LGT RAIN  53  53 100 NE3       30.03S FOG
WASHINGTON DC  LGT RAIN  56  54  93 E7        30.03F

$$



USA.gov is the U.S. government's official web portal to all federal, state and local government web resources and services.